| time (UTC) | temp C | wind direction | speed KPH | gust KPH | rain 1hr cm | rain 24hr cm | rain mn cm | humidity % | barometer mb |
| 20260507201004 | 8 | 287 | 9.7 | 19.3 | 0.00 | 0.56 | 0.00 | 50 | 1005.4 |
| 20260507200504 | 8 | 285 | 6.4 | 14.5 | 0.00 | 0.56 | 0.00 | 51 | 1005.3 |
| 20260507195504 | 8 | 293 | 4.8 | 19.3 | 0.00 | 0.56 | 0.00 | 52 | 1005.3 |
| 20260507195004 | 7 | 316 | 6.4 | 16.1 | 0.00 | 0.56 | 0.00 | 49 | 1005.3 |
| 20260507194503 | 7 | 285 | 8.0 | 27.4 | 0.00 | 0.58 | 0.00 | 49 | 1005.3 |
| 20260507193004 | 8 | 293 | 8.0 | 22.5 | 0.00 | 0.58 | 0.00 | 50 | 1005.4 |
| 20260507192003 | 8 | 286 | 8.0 | 25.7 | 0.00 | 0.61 | 0.00 | 50 | 1005.4 |
| 20260507191504 | 9 | 278 | 12.9 | 27.4 | 0.00 | 0.61 | 0.00 | 49 | 1005.4 |
| 20260507191004 | 9 | 270 | 11.3 | 27.4 | 0.00 | 0.61 | 0.00 | 51 | 1005.5 |
| 20260507190504 | 9 | 321 | 3.2 | 8.0 | 0.00 | 0.61 | 0.00 | 51 | 1005.4 |
| 20260507184004 | 9 | 281 | 12.9 | 33.8 | 0.00 | 0.61 | 0.00 | 48 | 1005.3 |
| 20260507183504 | 9 | 326 | 11.3 | 27.4 | 0.00 | 0.64 | 0.00 | 50 | 1005.4 |
| 20260507183004 | 8 | 338 | 8.0 | 24.1 | 0.00 | 0.64 | 0.00 | 52 | 1005.1 |
| 20260507181504 | 8 | 307 | 6.4 | 12.9 | 0.00 | 0.66 | 0.00 | 55 | 1005.3 |
| 20260507180504 | 8 | 348 | 8.0 | 20.9 | 0.00 | 0.69 | 0.00 | 53 | 1005.4 |
| 20260507175503 | 8 | 300 | 4.8 | 14.5 | 0.00 | 0.71 | 0.00 | 57 | 1005.2 |
| 20260507175004 | 8 | 319 | 4.8 | 19.3 | 0.00 | 0.74 | 0.00 | 57 | 1005.2 |
| 20260507174004 | 8 | 300 | 3.2 | 16.1 | 0.00 | 0.79 | 0.00 | 57 | 1005.4 |
| 20260507173004 | 8 | 319 | 9.7 | 16.1 | 0.00 | 0.86 | 0.00 | 56 | 1005.3 |
| 20260507172504 | 8 | 275 | 4.8 | 14.5 | 0.00 | 0.89 | 0.00 | 58 | 1005.4 |
| 20260507171503 | 8 | 303 | 9.7 | 14.5 | 0.00 | 0.94 | 0.00 | 60 | 1005.4 |
| 20260507171004 | 8 | 297 | 6.4 | 14.5 | 0.00 | 0.97 | 0.00 | 62 | 1005.4 |
| 20260507170504 | 8 | 312 | 3.2 | 16.1 | 0.00 | 1.02 | 0.00 | 63 | 1005.4 |
| 20260507170004 | 8 | 296 | 3.2 | 14.5 | 0.00 | 1.07 | 0.00 | 64 | 1005.5 |
| 20260507164504 | 8 | 249 | 16.1 | 37.0 | 0.00 | 1.17 | 0.00 | 62 | 1005.8 |
| 20260507164004 | 8 | 300 | 9.7 | 19.3 | 0.00 | 1.19 | 0.00 | 67 | 1005.8 |
| 20260507163504 | 7 | 287 | 4.8 | 12.9 | 0.00 | 1.22 | 0.00 | 65 | 1005.8 |
| 20260507163004 | 7 | 252 | 12.9 | 24.1 | 0.00 | 1.24 | 0.00 | 63 | 1006.0 |
| 20260507162504 | 7 | 290 | 8.0 | 19.3 | 0.00 | 1.27 | 0.00 | 66 | 1006.0 |
| 20260507162004 | 7 | 296 | 8.0 | 16.1 | 0.00 | 1.30 | 0.00 | 65 | 1006.1 |
| 20260507161503 | 7 | 276 | 11.3 | 19.3 | 0.00 | 1.32 | 0.00 | 65 | 1006.2 |
| 20260507160004 | 7 | 290 | 9.7 | 22.5 | 0.00 | 1.37 | 0.00 | 68 | 1006.1 |
| 20260507155004 | 7 | 287 | 4.8 | 16.1 | 0.00 | 1.40 | 0.00 | 72 | 1006.1 |
| 20260507154005 | 7 | 260 | 9.7 | 20.9 | 0.00 | 1.42 | 0.00 | 70 | 1006.2 |
| 20260507151504 | 5 | 257 | 3.2 | 11.3 | 0.00 | 1.47 | 0.00 | 79 | 1006.0 |
| 20260507145004 | 6 | 286 | 4.8 | 16.1 | 0.00 | 1.52 | 0.00 | 80 | 1006.0 |
| 20260507144504 | 6 | 266 | 8.0 | 14.5 | 0.00 | 1.52 | 0.00 | 82 | 1006.0 |
| 20260507143504 | 6 | 247 | 3.2 | 16.1 | 0.00 | 1.55 | 0.00 | 85 | 1006.0 |
| 20260507143004 | 6 | 219 | 9.7 | 19.3 | 0.00 | 1.55 | 0.00 | 86 | 1006.0 |
| 20260507142004 | 6 | 212 | 9.7 | 19.3 | 0.00 | 1.57 | 0.00 | 91 | 1006.0 |
| 20260507141504 | 5 | 247 | 8.0 | 20.9 | 0.00 | 1.57 | 0.00 | 93 | 1006.0 |
| 20260507140504 | 5 | 226 | 4.8 | 16.1 | 0.00 | 1.63 | 0.00 | 95 | 1006.0 |
| 20260507134503 | 5 | 276 | 4.8 | 19.3 | 0.00 | 1.70 | 0.00 | 96 | 1006.2 |
| 20260507133504 | 5 | 248 | 8.0 | 14.5 | 0.00 | 1.73 | 0.00 | 97 | 1006.1 |
| 20260507132504 | 4 | 268 | 4.8 | 9.7 | 0.00 | 1.75 | 0.00 | 97 | 1006.3 |
| 20260507132004 | 4 | 255 | 8.0 | 11.3 | 0.00 | 1.75 | 0.00 | 97 | 1006.3 |
| 20260507131004 | 4 | 238 | 4.8 | 9.7 | 0.00 | 1.78 | 0.00 | 97 | 1006.4 |
| 20260507130004 | 3 | 267 | 1.6 | 4.8 | 0.00 | 1.80 | 0.00 | 97 | 1006.3 |
| 20260507125005 | 3 | 249 | 3.2 | 4.8 | 0.00 | 1.85 | 0.00 | 96 | 1006.4 |
| 20260507124005 | 3 | 249 | 0.0 | 1.6 | 0.00 | 1.91 | 0.00 | 97 | 1006.3 |
| 20260507123504 | 3 | 239 | 0.0 | 1.6 | 0.00 | 1.93 | 0.00 | 96 | 1006.3 |
| 20260507121004 | 3 | 251 | 1.6 | 4.8 | 0.00 | 2.01 | 0.00 | 97 | 1006.3 |
| 20260507120504 | 3 | 268 | 3.2 | 4.8 | 0.00 | 2.01 | 0.00 | 97 | 1006.3 |
| 20260507120004 | 3 | 255 | 1.6 | 3.2 | 0.00 | 2.03 | 0.00 | 97 | 1006.4 |
| 20260507115005 | 3 | 257 | 1.6 | 8.0 | 0.00 | 2.03 | 0.00 | 97 | 1006.3 |
| 20260507114504 | 3 | 251 | 3.2 | 4.8 | 0.00 | 2.03 | 0.00 | 97 | 1006.4 |
| 20260507114004 | 3 | 232 | 1.6 | 4.8 | 0.00 | 2.03 | 0.00 | 97 | 1006.4 |
| 20260507113004 | 3 | 258 | 1.6 | 3.2 | 0.00 | 2.06 | 0.00 | 97 | 1006.4 |
| 20260507111004 | 3 | 240 | 0.0 | 1.6 | 0.00 | 2.06 | 0.00 | 97 | 1006.3 |
| 20260507110005 | 3 | 231 | 1.6 | 1.6 | 0.00 | 2.08 | 0.00 | 97 | 1006.3 |
| 20260507104505 | 3 | 253 | 3.2 | 4.8 | 0.00 | 2.08 | 0.00 | 97 | 1006.3 |
| 20260507104004 | 3 | 233 | 1.6 | 4.8 | 0.00 | 2.08 | 0.00 | 97 | 1006.2 |
| 20260507103504 | 2 | 249 | 3.2 | 4.8 | 0.00 | 2.08 | 0.00 | 97 | 1006.2 |
| 20260507101504 | 2 | 253 | 1.6 | 3.2 | 0.00 | 2.08 | 0.00 | 97 | 1006.2 |
| 20260507094504 | 2 | 255 | 3.2 | 4.8 | 0.00 | 2.11 | 0.00 | 98 | 1006.0 |
| 20260507093504 | 2 | 247 | 0.0 | 3.2 | 0.00 | 2.11 | 0.00 | 98 | 1005.7 |
| 20260507092504 | 2 | 160 | 0.0 | 0.0 | 0.00 | 2.11 | 0.00 | 97 | 1005.5 |
| 20260507092003 | 2 | 195 | 0.0 | 3.2 | 0.00 | 2.11 | 0.00 | 98 | 1005.5 |
| 20260507091505 | 2 | 226 | 3.2 | 4.8 | 0.00 | 2.11 | 0.00 | 98 | 1005.6 |
| 20260507091004 | 2 | 218 | 1.6 | 4.8 | 0.00 | 2.11 | 0.00 | 98 | 1005.7 |
| 20260507090005 | 2 | 247 | 1.6 | 4.8 | 0.00 | 2.13 | 0.00 | 98 | 1006.0 |
| 20260507085004 | 2 | 212 | 3.2 | 4.8 | 0.00 | 2.13 | 0.00 | 98 | 1006.2 |
| 20260507084504 | 2 | 253 | 1.6 | 4.8 | 0.00 | 2.16 | 0.00 | 98 | 1006.1 |
| 20260507082504 | 3 | 244 | 0.0 | 1.6 | 0.00 | 2.18 | 0.00 | 98 | 1006.0 |
| 20260507081004 | 3 | 241 | 0.0 | 1.6 | 0.00 | 2.21 | 0.00 | 98 | 1006.0 |
| 20260507080504 | 3 | 241 | 0.0 | 0.0 | 0.00 | 2.21 | 0.00 | 98 | 1005.9 |
| 20260507080004 | 3 | 241 | 0.0 | 0.0 | 0.00 | 2.21 | 0.00 | 98 | 1006.0 |
| 20260507075505 | 3 | 241 | 0.0 | 0.0 | 0.00 | 2.21 | 0.00 | 98 | 1006.0 |
| 20260507074504 | 3 | 241 | 0.0 | 0.0 | 0.00 | 2.21 | 0.00 | 98 | 1006.0 |
| 20260507073504 | 3 | 241 | 0.0 | 0.0 | 0.00 | 2.21 | 0.00 | 98 | 1005.8 |
| 20260507073004 | 3 | 241 | 0.0 | 0.0 | 0.00 | 2.21 | 0.00 | 98 | 1005.8 |
| 20260507072505 | 3 | 241 | 0.0 | 0.0 | 0.00 | 2.21 | 0.00 | 98 | 1005.7 |
| 20260507071504 | 3 | 241 | 0.0 | 0.0 | 0.00 | 2.21 | 0.00 | 98 | 1005.6 |
| 20260507071005 | 3 | 241 | 0.0 | 0.0 | 0.00 | 2.21 | 0.00 | 98 | 1005.7 |
| 20260507070009 | 3 | 241 | 0.0 | 0.0 | 0.00 | 2.21 | 0.00 | 98 | 1005.8 |
| 20260507065504 | 3 | 241 | 0.0 | 0.0 | 0.00 | 2.21 | 0.00 | 98 | 1005.8 |
| 20260507064504 | 3 | 241 | 0.0 | 0.0 | 0.00 | 2.24 | 0.00 | 98 | 1005.8 |
| 20260507062504 | 3 | 25 | 0.0 | 0.0 | 0.00 | 2.26 | 0.00 | 98 | 1005.9 |
| 20260507062004 | 3 | 25 | 0.0 | 0.0 | 0.00 | 2.26 | 0.00 | 98 | 1005.8 |
| 20260507061504 | 3 | 25 | 0.0 | 0.0 | 0.00 | 2.26 | 0.00 | 98 | 1005.7 |
| 20260507061005 | 3 | 25 | 0.0 | 0.0 | 0.00 | 2.26 | 0.00 | 98 | 1005.7 |
| 20260507060004 | 3 | 24 | 0.0 | 0.0 | 0.00 | 2.26 | 0.00 | 98 | 1005.8 |
| 20260507055505 | 3 | 25 | 0.0 | 0.0 | 0.00 | 2.29 | 0.00 | 98 | 1005.7 |
| 20260507055005 | 3 | 25 | 0.0 | 0.0 | 0.00 | 2.31 | 0.00 | 98 | 1005.8 |
| 20260507054505 | 3 | 24 | 0.0 | 0.0 | 0.00 | 2.34 | 0.00 | 98 | 1006.0 |
| 20260507053005 | 3 | 25 | 0.0 | 0.0 | 0.00 | 2.39 | 0.00 | 98 | 1006.3 |
| 20260507052504 | 3 | 24 | 0.0 | 0.0 | 0.00 | 2.39 | 0.00 | 98 | 1006.3 |
| 20260507050505 | 3 | 24 | 0.0 | 0.0 | 0.00 | 2.46 | 0.00 | 98 | 1006.5 |
| 20260507045004 | 3 | 24 | 0.0 | 1.6 | 0.00 | 2.46 | 0.00 | 98 | 1006.4 |
| 20260507044504 | 3 | 335 | 0.0 | 0.0 | 0.00 | 2.49 | 0.00 | 98 | 1006.6 |
| 20260507044004 | 3 | 335 | 0.0 | 0.0 | 0.00 | 2.49 | 0.00 | 98 | 1006.7 |
| 20260507043504 | 3 | 335 | 0.0 | 0.0 | 0.00 | 2.49 | 0.00 | 98 | 1006.6 |
| 20260507043004 | 3 | 335 | 0.0 | 0.0 | 0.00 | 2.49 | 0.00 | 98 | 1006.6 |
| 20260507041503 | 3 | 335 | 0.0 | 0.0 | 0.00 | 2.54 | 0.00 | 97 | 1006.6 |
| 20260507040504 | 4 | 335 | 0.0 | 0.0 | 0.00 | 2.57 | 0.00 | 97 | 1006.7 |
| 20260507040004 | 4 | 335 | 0.0 | 4.8 | 0.00 | 2.59 | 0.00 | 98 | 1006.6 |
| 20260507035004 | 4 | 349 | 1.6 | 4.8 | 0.00 | 2.67 | 2.59 | 98 | 1006.7 |
| 20260507033504 | 4 | 350 | 3.2 | 4.8 | 0.00 | 2.74 | 2.59 | 98 | 1006.8 |
| 20260507032004 | 4 | 300 | 1.6 | 4.8 | 0.00 | 2.74 | 2.59 | 98 | 1006.7 |
| 20260507031504 | 4 | 328 | 0.0 | 3.2 | 0.00 | 2.74 | 2.59 | 98 | 1006.6 |
| 20260507030004 | 4 | 315 | 0.0 | 1.6 | 0.03 | 2.77 | 2.59 | 98 | 1006.5 |
| 20260507025004 | 4 | 303 | 0.0 | 3.2 | 0.05 | 2.79 | 2.59 | 98 | 1006.5 |
| 20260507024004 | 4 | 37 | 0.0 | 1.6 | 0.08 | 2.79 | 2.59 | 98 | 1006.4 |
| 20260507023504 | 4 | 320 | 1.6 | 4.8 | 0.10 | 2.79 | 2.59 | 98 | 1006.6 |
| 20260507023004 | 5 | 93 | 1.6 | 3.2 | 0.10 | 2.79 | 2.59 | 98 | 1006.5 |
| 20260507022004 | 5 | 346 | 1.6 | 8.0 | 0.13 | 2.79 | 2.59 | 98 | 1007.0 |
| 20260507021504 | 5 | 293 | 1.6 | 4.8 | 0.13 | 2.79 | 2.59 | 98 | 1007.0 |
| 20260507020504 | 5 | 328 | 0.0 | 1.6 | 0.13 | 2.77 | 2.57 | 98 | 1006.9 |
| 20260507020004 | 5 | 335 | 0.0 | 0.0 | 0.13 | 2.77 | 2.57 | 98 | 1006.8 |
| 20260507014504 | 5 | 345 | 0.0 | 1.6 | 0.15 | 2.74 | 2.54 | 98 | 1006.8 |
| 20260507012503 | 5 | 351 | 1.6 | 4.8 | 0.10 | 2.67 | 2.46 | 98 | 1006.7 |
| 20260507011004 | 5 | 14 | 1.6 | 4.8 | 0.08 | 2.64 | 2.44 | 98 | 1006.4 |
| 20260507005503 | 5 | 323 | 0.0 | 1.6 | 0.08 | 2.62 | 2.41 | 98 | 1006.2 |
| 20260507003504 | 5 | 359 | 0.0 | 4.8 | 0.08 | 2.59 | 2.39 | 98 | 1005.9 |
| 20260507002503 | 5 | 322 | 0.0 | 0.0 | 0.05 | 2.57 | 2.36 | 98 | 1005.7 |
| 20260506235503 | 5 | 345 | 0.0 | 3.2 | 0.03 | 2.54 | 2.34 | 97 | 1005.3 |
| 20260506235003 | 5 | 316 | 0.0 | 3.2 | 0.03 | 2.54 | 2.34 | 97 | 1005.4 |
| 20260506234504 | 5 | 337 | 1.6 | 4.8 | 0.03 | 2.54 | 2.34 | 97 | 1005.4 |
| 20260506233003 | 5 | 134 | 0.0 | 1.6 | 0.00 | 2.51 | 2.31 | 97 | 1005.5 |
| 20260506232503 | 5 | 294 | 0.0 | 3.2 | 0.00 | 2.51 | 2.31 | 97 | 1005.4 |
| 20260506231503 | 5 | 16 | 1.6 | 9.7 | 0.00 | 2.51 | 2.31 | 97 | 1005.5 |
| 20260506230003 | 5 | 11 | 1.6 | 4.8 | 0.00 | 2.51 | 2.31 | 97 | 1005.5 |
| 20260506225503 | 5 | 2 | 0.0 | 3.2 | 0.00 | 2.51 | 2.31 | 97 | 1005.3 |
| 20260506225003 | 5 | 354 | 1.6 | 8.0 | 0.03 | 2.51 | 2.31 | 97 | 1005.3 |
| 20260506224503 | 5 | 359 | 1.6 | 4.8 | 0.03 | 2.51 | 2.31 | 97 | 1005.2 |
| 20260506223503 | 5 | 347 | 1.6 | 3.2 | 0.03 | 2.51 | 2.31 | 97 | 1005.0 |
| 20260506223003 | 5 | 14 | 3.2 | 4.8 | 0.03 | 2.51 | 2.31 | 97 | 1005.3 |
| 20260506222003 | 5 | 336 | 1.6 | 8.0 | 0.05 | 2.51 | 2.31 | 97 | 1005.2 |
| 20260506221003 | 5 | 309 | 1.6 | 4.8 | 0.08 | 2.51 | 2.31 | 97 | 1005.3 |
| 20260506215503 | 5 | 54 | 1.6 | 4.8 | 0.10 | 2.51 | 2.31 | 97 | 1005.1 |
| 20260506214503 | 5 | 338 | 0.0 | 1.6 | 0.13 | 2.49 | 2.29 | 97 | 1005.1 |
| 20260506213503 | 5 | 332 | 1.6 | 4.8 | 0.15 | 2.49 | 2.29 | 97 | 1005.2 |
| 20260506212004 | 5 | 351 | 3.2 | 4.8 | 0.18 | 2.46 | 2.26 | 97 | 1005.2 |
| 20260506211003 | 5 | 336 | 1.6 | 4.8 | 0.20 | 2.46 | 2.24 | 97 | 1005.2 |
| 20260506210003 | 5 | 2 | 1.6 | 4.8 | 0.18 | 2.54 | 2.21 | 97 | 1005.1 |
| 20260506205003 | 5 | 343 | 0.0 | 3.2 | 0.15 | 2.51 | 2.18 | 97 | 1005.1 |
| 20260506204503 | 5 | 327 | 1.6 | 4.8 | 0.15 | 2.49 | 2.16 | 97 | 1005.0 |
| 20260506202503 | 5 | 264 | 0.0 | 4.8 | 0.08 | 2.41 | 2.08 | 97 | 1004.6 |
| 20260506202003 | 5 | 351 | 1.6 | 4.8 | 0.10 | 2.41 | 2.08 | 97 | 1004.5 |